Alpine, TX

9:47 AM CST on December 08, 2016 (GMT -0600)
Alpine

Weather History for KE38 - September, 2013

Change the Weather History Date:

Monday, September 23, 2013

  Actual Average (KMRF) Record (KMRF)
Temperature  
Mean Temperature 72 °F -  
Max Temperature 85 °F 79 °F 87 °F (2000)
Min Temperature 58 °F 50 °F 44 °F (1999)
Cooling Degree Days 6    
Growing Degree Days 22 (Base 50)    
Moisture  
Dew Point 49 °F    
Average Humidity 47    
Maximum Humidity 73    
Minimum Humidity 23    
Precipitation  
Precipitation 0.00 in - - ()
Sea Level Pressure  
Sea Level Pressure 30.01 in    
Wind  
Wind Speed 9 mph (WSW)    
Max Wind Speed 16 mph    
Max Gust Speed 25 mph    
Visibility 10 miles    
Events      
Averages and records for this station are not official NWS values.
T = Trace of Precipitation, MM = Missing Value Source: NWS Daily Summary

Daily Weather History Graph

Daily Weather History Graph

Search for Another Location

Airport or City:

Trip Planner

Search our weather history database for the weather conditions in past years. The results will help you decide how hot, cold, wet, or windy it might be!

Date:

Astronomy

Sep. 23, 2013 Rise Set
Actual Time 7:43 AM CDT 7:49 PM CDT
Civil Twilight 7:19 AM CDT 8:13 PM CDT
Nautical Twilight 6:51 AM CDT 8:41 PM CDT
Astronomical Twilight 6:23 AM CDT 9:09 PM CDT
Moon 10:43 PM CDT (9/23) 11:46 AM CDT (9/23)
Length of Visible Light 12h 53m
Length of Day
12h 05m
Waning Gibbous, 81% of the Moon is Illuminated
Sep 23
Waning Gibbous
Sep 26
Last Quarter
Oct 4
New
Oct 11
First Quarter
Oct 18
Full

Hourly Weather History & Observations

Time (CDT) Temp. Heat Index Dew Point Humidity Pressure Visibility Wind Dir Wind Speed Gust Speed Precip Events Conditions
12:15 AM 63.1 °F - 48.0 °F 58% 29.98 in 10.0 mi SW 5.8 mph - N/A   Clear
12:35 AM 61.2 °F - 48.4 °F 63% 29.97 in 10.0 mi SW 9.2 mph - N/A   Clear
12:55 AM 61.9 °F - 47.5 °F 59% 29.97 in 10.0 mi SW 10.4 mph - N/A   Clear
1:15 AM 61.5 °F - 47.7 °F 60% 29.97 in 10.0 mi SW 5.8 mph - N/A   Clear
1:35 AM 61.2 °F - 47.8 °F 62% 29.96 in 10.0 mi SSW 6.9 mph - N/A   Clear
1:55 AM 61.0 °F - 47.8 °F 62% 29.96 in 10.0 mi SW 10.4 mph - N/A   Clear
2:15 AM 63.3 °F - 47.8 °F 57% 29.96 in 10.0 mi SSW 11.5 mph - N/A   Clear
2:35 AM 61.7 °F - 48.2 °F 61% 29.96 in 10.0 mi SSW 8.1 mph - N/A   Clear
2:55 AM 60.8 °F - 49.3 °F 66% 29.96 in 10.0 mi SSW 8.1 mph - N/A   Clear
3:15 AM 63.3 °F - 49.5 °F 61% 29.96 in 10.0 mi SW 12.7 mph - N/A   Clear
3:35 AM 64.4 °F - 49.3 °F 58% 29.96 in 10.0 mi SW 10.4 mph - N/A   Clear
3:55 AM 64.8 °F - 49.3 °F 57% 29.96 in 10.0 mi WSW 5.8 mph - N/A   Clear
4:15 AM 61.3 °F - 50.0 °F 66% 29.96 in 10.0 mi SW 6.9 mph - N/A   Clear
4:35 AM 61.7 °F - 49.5 °F 64% 29.96 in 10.0 mi WSW 11.5 mph - N/A   Clear
4:55 AM 61.0 °F - 49.5 °F 66% 29.95 in 10.0 mi WSW 10.4 mph - N/A   Clear
5:15 AM 60.6 °F - 49.3 °F 66% 29.96 in 10.0 mi SW 11.5 mph - N/A   Clear
5:35 AM 60.4 °F - 49.1 °F 66% 29.96 in 10.0 mi SW 9.2 mph - N/A   Clear
5:55 AM 60.1 °F - 49.3 °F 67% 29.97 in 10.0 mi WSW 9.2 mph - N/A   Clear
6:15 AM 59.9 °F - 49.1 °F 67% 29.97 in 10.0 mi WSW 6.9 mph - N/A   Clear
6:35 AM 58.5 °F - 49.3 °F 72% 29.97 in 10.0 mi West 8.1 mph - N/A   Clear
6:55 AM 60.8 °F - 49.1 °F 65% 29.98 in 10.0 mi WSW 9.2 mph - N/A   Clear
7:15 AM 58.6 °F - 50.0 °F 73% 29.98 in 10.0 mi WSW 6.9 mph - N/A   Clear
7:35 AM 60.1 °F - 49.8 °F 69% 29.98 in 10.0 mi WSW 10.4 mph - N/A   Clear
7:55 AM 61.0 °F - 49.3 °F 65% 30.00 in 10.0 mi WSW 10.4 mph - N/A   Clear
8:15 AM 62.1 °F - 49.6 °F 64% 30.00 in 10.0 mi WSW 9.2 mph - N/A   Clear
8:35 AM 64.6 °F - 51.3 °F 62% 30.00 in 10.0 mi SW 9.2 mph - N/A   Clear
8:55 AM 67.1 °F - 51.6 °F 57% 30.01 in 10.0 mi SW 10.4 mph - N/A   Clear
9:15 AM 69.3 °F - 52.0 °F 54% 30.01 in 10.0 mi SW 10.4 mph - N/A   Clear
9:35 AM 70.9 °F - 52.3 °F 52% 30.02 in 10.0 mi SW 11.5 mph - N/A   Clear
9:55 AM 72.3 °F - 52.9 °F 50% 30.02 in 10.0 mi SW 11.5 mph - N/A   Clear
10:15 AM 73.9 °F - 53.6 °F 49% 30.03 in 10.0 mi SW 11.5 mph 16.1 mph N/A   Clear
10:35 AM 75.9 °F - 54.5 °F 47% 30.03 in 10.0 mi WSW 13.8 mph - N/A   Clear
10:55 AM 77.0 °F - 55.2 °F 47% 30.03 in 10.0 mi WSW 13.8 mph - N/A   Clear
11:15 AM 78.6 °F - 55.4 °F 45% 30.04 in 10.0 mi West 13.8 mph - N/A   Clear
11:35 AM 79.3 °F - 54.9 °F 43% 30.04 in 10.0 mi West 8.1 mph - N/A   Clear
11:55 AM 80.2 °F 80.2 °F 54.3 °F 41% 30.04 in 10.0 mi WNW 12.7 mph - N/A   Clear
12:15 PM 81.0 °F 80.4 °F 53.1 °F 38% 30.04 in 10.0 mi WNW 15.0 mph 21.9 mph N/A   Clear
12:35 PM 81.7 °F 80.9 °F 53.2 °F 37% 30.04 in 10.0 mi NW 10.4 mph 17.3 mph N/A   Clear
1:15 PM 82.2 °F - 52.2 °F 35% 30.03 in 10.0 mi West 10.4 mph - N/A   Clear
1:35 PM 83.1 °F - 51.8 °F 34% 30.03 in 10.0 mi West 13.8 mph 20.7 mph N/A   Clear
1:55 PM 83.5 °F - 52.9 °F 35% 30.02 in 10.0 mi West 15.0 mph 19.6 mph N/A   Clear
2:15 PM 83.8 °F - 52.7 °F 34% 30.02 in 10.0 mi West 11.5 mph 17.3 mph N/A   Clear
2:35 PM 84.2 °F - 52.0 °F 33% 30.01 in 10.0 mi WNW 15.0 mph 19.6 mph N/A   Clear
2:55 PM 84.0 °F - 52.0 °F 33% 30.01 in 10.0 mi West 10.4 mph 18.4 mph N/A   Scattered Clouds
3:15 PM 84.9 °F - 51.3 °F 31% 30.01 in 10.0 mi West 16.1 mph 20.7 mph N/A   Clear
3:35 PM 84.7 °F - 50.4 °F 30% 30.00 in 10.0 mi West 15.0 mph - N/A   Clear
3:55 PM 85.3 °F - 48.7 °F 28% 30.00 in 10.0 mi West 16.1 mph 25.3 mph N/A   Clear
4:15 PM 85.3 °F - 46.9 °F 26% 30.00 in 10.0 mi West 16.1 mph 21.9 mph N/A   Clear
4:35 PM 85.5 °F - 44.6 °F 24% 30.00 in 10.0 mi West 13.8 mph 24.2 mph N/A   Clear
4:55 PM 85.8 °F - 46.0 °F 25% 30.00 in 10.0 mi WNW 12.7 mph 16.1 mph N/A   Clear
5:15 PM 85.3 °F - 46.2 °F 26% 30.00 in 10.0 mi WNW 9.2 mph 20.7 mph N/A   Clear
5:35 PM 85.3 °F - 43.2 °F 23% 30.00 in 10.0 mi West 10.4 mph 19.6 mph N/A   Clear
5:55 PM 84.9 °F - 45.3 °F 25% 30.00 in 10.0 mi WNW 9.2 mph - N/A   Clear
6:15 PM 84.2 °F - 43.9 °F 24% 30.01 in 10.0 mi WNW 13.8 mph 18.4 mph N/A   Clear
6:35 PM 83.5 °F - 43.0 °F 24% 30.01 in 10.0 mi WNW 9.2 mph - N/A   Clear
6:55 PM 82.6 °F - 45.1 °F 27% 30.01 in 10.0 mi NW 9.2 mph - N/A   Clear
7:15 PM 81.1 °F - 45.7 °F 29% 30.02 in 10.0 mi WNW 5.8 mph - N/A   Clear
7:35 PM 79.0 °F - 46.4 °F 32% 30.02 in 10.0 mi WNW 6.9 mph - N/A   Clear
7:55 PM 75.7 °F - 47.7 °F 37% 30.02 in 10.0 mi WNW 5.8 mph - N/A   Clear
8:15 PM 74.7 °F - 48.0 °F 39% 30.03 in 10.0 mi WNW 4.6 mph - N/A   Clear
8:35 PM 69.6 °F - 51.3 °F 52% 30.03 in 10.0 mi West 6.9 mph - N/A   Clear
8:55 PM 69.3 °F - 51.1 °F 52% 30.04 in 10.0 mi West 6.9 mph - N/A   Clear
9:15 PM 68.4 °F - 50.9 °F 54% 30.05 in 10.0 mi West 6.9 mph - N/A   Clear
9:35 PM 67.3 °F - 50.5 °F 55% 30.06 in 10.0 mi West 6.9 mph - N/A   Clear
9:55 PM 68.0 °F - 49.1 °F 51% 30.07 in 10.0 mi WNW 6.9 mph - N/A   Clear
10:15 PM 68.0 °F - 47.7 °F 48% 30.08 in 10.0 mi NW 8.1 mph - N/A   Clear
10:35 PM 72.7 °F - 44.4 °F 36% 30.09 in 10.0 mi NW 9.2 mph - N/A   Clear
10:55 PM 70.9 °F - 43.7 °F 38% 30.09 in 10.0 mi NW 5.8 mph - N/A   Clear
11:15 PM 70.9 °F - 42.3 °F 36% 30.10 in 10.0 mi NW 5.8 mph - N/A   Clear
11:35 PM 68.4 °F - 44.4 °F 42% 30.11 in 10.0 mi SW 4.6 mph - N/A   Clear
11:55 PM 69.3 °F - 42.1 °F 37% 30.11 in 10.0 mi South 5.8 mph - N/A   Clear